Lapse_Rate
4.2 4.2 4.0 3.9 3.9 3.9 3.8 3.8 3.8 3.6 3.5 3.3 3.1 3.0 3.1 3.4 3.8 4.1 4.5 4.3 4.5 5.0 4.8 5.8 5.7 5.5 5.7 5.4 5.0 5.0 4.0 3.7 4.6 5.0 5.2 6.7 6.6 6.4 5.9 5.8 6.2 6.2 5.7 5.7 5.8
4.4 4.3 4.2 4.1 4.1 4.1 4.2 4.1 3.7 3.5 3.5 3.3 3.0 2.8 2.8 3.1 3.5 4.3 4.5 4.4 4.4 4.7 5.8 6.2 5.8 5.4 5.1 5.5 5.2 4.7 4.0 3.8 4.8 5.3 5.7 6.3 6.3 6.5 5.8 5.7 5.9 6.0 5.9 5.6 5.7
4.3 4.3 4.3 4.2 4.1 4.1 3.9 3.7 3.6 3.4 3.5 3.3 2.8 2.7 2.9 3.0 3.4 4.2 4.1 4.1 4.3 4.7 5.7 6.1 6.1 5.1 4.8 5.0 5.3 5.1 4.5 4.3 4.8 5.5 5.8 6.1 6.3 6.3 5.8 5.7 5.9 5.9 6.1 5.9 5.6
4.8 4.7 4.6 4.4 4.3 4.0 3.7 3.3 3.4 3.2 3.2 3.2 3.0 2.9 2.9 3.1 4.3 3.6 3.5 4.5 5.1 5.3 5.5 5.8 5.8 5.3 4.4 4.6 4.9 4.8 4.9 4.7 5.1 5.2 5.4 5.5 5.9 5.9 5.8 5.7 6.3 6.1 6.0 5.7 5.4
4.9 4.7 4.5 4.2 4.0 3.6 3.3 3.0 3.2 3.4 3.4 3.4 3.2 3.1 3.1 4.1 4.8 4.8 4.3 4.2 5.7 6.1 5.6 5.9 5.8 5.3 5.0 5.2 4.9 4.7 4.9 4.9 5.1 5.4 5.3 5.7 5.7 6.0 6.1 5.8 6.3 6.2 5.7 5.6 5.5
4.7 4.6 4.4 4.2 4.0 3.9 3.5 3.0 2.9 3.2 3.4 3.4 3.3 3.3 3.2 4.5 4.2 4.8 6.1 6.1 5.8 6.0 6.1 5.6 5.8 5.6 5.2 5.2 4.9 5.1 5.1 5.0 5.2 5.4 5.4 5.3 5.6 5.9 6.1 6.1 6.4 6.4 5.9 5.5 5.3
4.7 4.6 4.4 4.2 4.0 3.7 3.1 2.7 2.9 2.9 3.0 3.3 3.5 3.6 3.4 5.7 4.7 5.6 6.1 6.6 6.3 6.1 6.3 5.7 5.6 5.4 5.0 5.5 5.8 5.6 5.4 5.4 5.3 5.3 5.6 5.5 5.3 5.2 5.9 6.0 6.2 6.5 6.1 5.6 5.5
4.7 4.4 4.2 4.1 3.9 3.5 2.9 2.8 2.9 2.9 3.0 3.3 3.7 3.8 3.5 5.1 5.7 6.1 6.6 6.4 6.5 6.2 6.2 5.9 5.4 5.2 5.1 5.3 6.0 5.8 5.7 5.3 5.6 5.6 5.8 5.8 5.1 5.3 5.8 5.9 5.9 6.3 6.2 5.8 5.7
4.3 4.3 4.4 4.0 3.8 3.5 2.7 2.7 3.0 2.9 3.3 3.6 3.8 3.3 3.9 4.5 5.4 6.1 6.1 6.5 6.3 6.2 5.7 5.6 5.4 4.8 5.3 5.2 5.8 6.2 5.5 5.2 5.2 6.1 6.1 6.5 5.5 5.6 5.9 6.0 5.8 6.3 6.4 5.9 5.8
4.3 4.4 4.3 4.1 3.8 3.7 3.1 2.9 2.8 3.2 3.4 3.9 3.3 3.9 4.5 4.9 5.5 6.1 6.3 5.8 5.8 5.6 5.4 5.5 5.5 4.6 5.0 5.4 5.6 5.6 6.0 6.1 5.5 6.0 6.5 6.5 5.4 5.7 5.9 6.1 5.9 6.0 6.2 6.2 5.7
4.4 4.6 4.5 4.7 4.3 4.2 4.0 2.9 3.0 3.4 3.5 4.0 4.4 4.9 5.1 5.0 5.7 5.4 5.5 5.3 5.6 5.8 5.7 5.7 4.9 4.5 5.9 6.0 5.9 6.3 6.8 6.3 6.4 6.6 6.9 6.9 6.3 6.5 6.3 6.2 6.0 6.0 6.1 6.1 5.9
4.6 4.7 4.7 4.8 4.6 4.5 3.8 2.4 3.3 4.0 3.3 4.1 4.6 4.5 4.8 5.6 5.6 5.5 5.3 5.4 5.6 6.0 5.7 5.6 5.0 5.6 5.5 5.7 5.8 5.7 5.8 5.7 6.3 6.9 7.1 6.6 6.0 6.1 6.4 6.2 6.3 6.2 6.2 6.1 6.2
4.6 4.5 4.4 4.6 4.2 4.0 3.5 2.5 3.0 3.8 3.6 3.4 4.3 4.8 4.9 4.8 5.5 5.5 5.8 5.6 5.7 6.1 6.0 5.8 6.3 6.1 5.7 5.7 6.0 6.2 6.0 5.7 6.0 6.8 6.8 6.4 6.1 6.5 6.1 6.3 6.3 6.4 6.0 6.5 6.2
4.4 4.1 4.1 4.1 3.6 3.7 3.0 2.4 2.7 4.3 3.8 3.9 4.2 4.9 5.5 5.6 6.0 6.0 6.0 6.1 6.1 6.1 6.0 6.0 6.6 6.4 6.2 6.0 6.6 6.2 6.6 6.7 6.9 7.0 6.7 7.4 6.2 6.6 6.6 6.5 6.6 6.2 6.2 5.9 6.1
4.1 3.9 4.0 3.6 3.2 3.5 2.5 2.6 3.4 4.4 4.1 4.7 5.4 5.7 5.8 6.1 6.1 6.1 6.3 6.4 6.5 6.4 6.2 6.3 6.8 6.9 6.7 6.6 6.7 5.8 6.6 6.7 6.7 6.5 6.7 6.9 6.7 5.3 6.3 6.5 6.4 6.1 5.9 5.8 5.9
4.1 4.0 3.9 3.3 2.8 2.3 2.3 2.7 3.4 4.0 4.1 5.5 5.8 5.7 5.9 6.2 6.6 6.5 6.4 6.5 6.6 6.5 6.4 6.4 6.5 6.4 6.7 6.6 6.6 6.4 6.7 6.7 6.7 6.9 6.5 5.7 6.8 5.5 5.9 6.5 6.2 6.3 6.3 5.9 5.8
4.2 3.9 3.7 2.9 2.7 1.8 2.1 3.1 3.4 4.3 6.1 5.4 6.1 6.1 6.1 6.5 6.9 6.8 6.8 6.9 6.9 6.7 6.9 7.2 7.9 7.4 7.3 6.9 6.9 6.8 6.7 6.0 6.3 6.5 6.0 6.5 6.8 5.3 6.3 6.7 6.5 6.5 6.0 5.7 6.2
4.0 3.4 3.5 2.8 1.9 1.4 2.6 2.8 3.9 5.2 6.0 6.0 6.6 6.7 6.3 7.0 7.0 7.0 7.0 7.1 7.5 7.2 6.9 6.9 7.1 8.1 7.8 7.2 6.7 6.5 6.8 6.3 5.9 4.9 6.2 7.2 7.5 6.0 6.4 6.8 6.4 6.3 6.5 5.9 6.6
3.1 2.8 2.7 2.0 1.2 1.8 2.4 3.3 4.8 5.7 6.5 6.7 6.7 6.4 6.8 7.1 7.1 7.0 7.1 7.2 7.3 7.4 7.5 7.5 7.4 8.1 7.8 7.8 7.8 6.4 6.9 6.9 6.6 6.4 6.6 6.6 7.3 6.4 6.9 6.5 6.6 6.3 7.0 6.0 6.2
2.2 1.4 1.5 1.3 1.6 2.1 2.7 4.2 5.3 6.7 6.6 6.7 6.7 6.7 6.9 7.2 7.1 6.9 6.8 7.5 7.4 7.4 7.2 7.1 7.0 7.9 8.1 8.4 8.5 8.0 7.6 7.7 7.3 6.9 6.4 6.2 6.5 5.9 6.8 7.0 7.1 7.3 6.7 6.6 6.3
1.2 1.1 1.5 1.8 1.8 2.6 3.4 4.1 5.9 7.1 7.1 6.7 6.9 7.0 6.7 6.8 6.9 6.9 6.8 7.6 7.2 7.0 7.1 7.1 7.0 7.6 7.8 8.1 7.5 7.7 7.0 7.5 7.3 7.3 6.5 6.4 6.8 6.6 6.6 7.0 6.9 7.2 7.5 7.4 6.9
0.9 1.2 1.6 2.0 1.8 2.5 3.5 4.1 5.7 6.7 6.7 6.8 6.7 6.8 6.9 6.8 6.6 6.7 6.7 6.9 7.2 7.0 7.0 7.2 7.4 7.2 7.6 7.9 7.7 7.1 6.6 6.6 7.4 7.2 7.2 6.7 6.6 7.0 7.5 7.6 7.1 6.3 7.3 7.8 8.3
1.1 1.4 1.4 2.1 2.2 2.9 3.4 4.3 5.5 6.8 7.0 6.6 6.7 6.8 6.8 6.7 6.6 6.7 6.8 7.2 7.1 7.1 7.3 7.3 7.3 7.2 7.4 7.8 8.0 7.4 7.3 6.2 5.6 6.9 6.8 7.1 6.1 7.5 7.6 7.5 7.1 6.5 6.7 6.9 7.1
1.5 1.7 1.6 1.9 2.7 3.0 3.6 4.3 5.8 6.9 6.7 6.4 6.7 6.7 6.7 6.8 6.6 6.7 7.1 7.2 7.1 7.3 7.5 7.4 7.5 7.4 6.5 7.0 7.0 6.7 7.3 6.9 6.2 6.3 7.0 6.2 7.1 7.1 6.9 6.7 6.4 6.0 6.5 6.7 6.8
2.0 1.8 2.2 2.4 3.2 3.2 4.1 5.4 6.8 6.8 6.9 6.5 6.5 7.2 6.8 6.7 6.9 6.9 7.0 7.2 7.4 7.3 7.4 7.4 7.4 7.5 7.4 7.2 7.2 7.2 7.1 7.2 7.2 7.0 5.8 6.1 6.1 6.4 5.9 5.7 6.2 6.2 5.9 6.6 7.1
2.1 2.3 2.3 2.6 2.9 3.5 4.5 5.5 6.6 7.0 6.9 6.7 7.0 7.3 7.0 7.0 7.3 7.2 7.4 7.2 7.2 7.4 7.3 7.2 7.2 7.2 7.0 7.1 7.5 6.9 7.4 7.6 7.1 6.9 6.3 6.1 6.1 5.5 6.1 5.4 5.4 5.3 5.9 6.9 7.1
2.3 1.6 1.7 2.8 2.9 3.7 4.5 5.3 6.2 6.9 7.1 7.3 7.2 7.1 7.1 7.8 7.4 7.4 7.3 7.1 7.3 7.2 7.3 7.3 7.2 6.9 6.7 7.0 7.0 6.5 7.9 7.3 7.2 6.6 6.1 5.9 5.5 6.2 6.6 5.8 5.6 5.6 5.4 6.0 6.4
Wind_Speed
23 23 24 24 25 25 24 23 21 19 18 18 19 22 23 26 28 17 18 14 8 23 20 16 17 13 10 10 12 7 7 17 23 19 15 11 6 10 5 3 2 4 8 8 15
26 27 27 28 28 27 27 26 23 21 19 18 18 20 23 25 20 21 13 15 12 11 7 7 10 9 6 4 7 15 14 24 10 17 9 15 16 11 6 4 4 3 4 17 24
28 29 29 31 31 29 28 27 26 23 21 18 16 18 21 23 8 4 17 4 18 15 10 14 11 12 13 6 5 15 26 14 12 17 16 17 18 9 7 7 7 7 8 20 18
32 32 32 33 33 33 32 30 28 25 21 18 15 14 16 6 9 3 9 26 14 11 7 1 6 11 8 16 12 12 24 18 17 16 13 14 8 12 6 8 5 10 20 19 19
32 32 33 34 35 35 35 33 31 28 23 17 13 11 5 7 12 16 26 20 8 5 5 7 6 4 14 12 16 23 19 15 18 22 22 17 20 15 16 12 9 6 15 19 21
33 33 33 34 35 36 37 35 33 29 23 15 11 9 4 16 5 13 12 10 8 5 5 3 4 8 9 8 16 11 12 18 17 18 19 24 24 9 15 9 11 6 17 18 19
33 33 33 33 33 33 34 36 35 28 21 12 8 7 10 25 11 21 19 11 13 14 11 14 9 9 5 6 9 15 16 17 16 15 23 17 20 26 11 10 13 11 8 18 21
32 33 32 32 31 32 32 25 33 22 13 8 7 7 9 12 20 14 10 12 13 12 15 16 12 11 5 7 6 6 16 20 26 20 21 11 30 22 12 10 17 12 7 14 17
30 35 33 26 32 32 26 29 21 10 7 3 4 5 10 10 7 12 13 8 6 10 7 14 13 10 4 6 8 9 12 23 21 12 7 19 28 15 13 14 17 16 8 12 16
33 24 31 29 25 23 25 13 14 7 2 6 7 2 8 6 4 4 1 4 3 7 7 4 5 4 2 6 14 11 8 13 13 10 13 19 27 14 13 20 20 16 18 10 17
30 31 27 29 27 23 9 7 4 1 7 11 12 6 6 2 8 5 6 4 6 5 9 5 6 11 14 11 17 19 20 19 13 7 11 17 25 20 18 15 18 18 19 18 11
29 29 28 30 28 3 7 3 4 2 5 15 15 19 23 12 11 15 6 5 7 12 7 5 12 11 15 14 17 19 23 26 21 13 13 16 21 12 19 23 19 19 15 17 14
28 28 25 18 16 5 7 8 4 4 3 4 14 10 14 9 7 7 3 6 4 8 11 11 8 5 13 16 18 19 19 20 18 16 17 12 23 12 16 17 22 22 19 15 20
27 26 25 13 6 4 4 7 6 2 2 2 2 2 3 3 5 8 4 2 3 5 3 5 13 13 12 10 10 14 14 17 19 15 11 6 18 8 7 14 16 25 18 22 14
26 23 16 6 9 1 8 8 4 1 3 5 3 6 4 4 7 2 6 3 6 7 2 5 12 16 16 9 11 18 11 14 16 14 13 19 10 5 11 14 17 19 15 24 20
22 8 27 6 4 11 15 7 1 2 3 1 3 2 3 7 6 4 4 6 4 5 9 13 10 11 10 13 15 17 16 14 11 6 13 18 13 17 15 21 13 19 22 21 20
13 20 8 3 7 12 7 0 2 3 2 1 2 5 7 5 5 5 2 2 1 4 3 9 4 4 10 13 13 12 4 4 3 5 12 13 13 23 8 21 20 20 21 20 20
30 21 12 7 18 10 0 3 1 2 2 4 3 10 6 3 0 4 3 2 5 3 2 2 10 5 5 3 7 8 5 5 6 4 10 10 8 15 18 24 15 11 16 18 21
24 7 4 4 9 2 1 2 4 4 3 2 5 8 4 3 1 3 0 2 2 3 6 3 6 9 14 17 12 4 9 16 14 19 13 6 7 19 20 17 21 26 24 20 22
2 4 3 4 2 2 2 4 3 3 6 2 5 4 2 1 1 3 2 3 4 5 4 2 5 3 9 11 11 9 8 6 7 7 13 10 12 12 4 12 21 22 28 25 20
3 3 3 6 2 1 2 5 2 5 4 5 3 4 3 2 5 2 4 7 2 3 4 4 4 7 5 3 14 13 10 7 6 7 5 13 11 26 17 19 13 21 26 25 21
3 1 4 2 1 2 2 3 2 7 5 6 3 6 6 4 3 3 7 7 1 5 1 2 4 6 7 7 5 6 7 14 5 4 5 12 15 3 5 4 6 12 15 25 22
2 2 3 2 3 3 4 3 6 8 8 6 7 10 5 4 1 5 5 5 6 4 3 3 1 4 8 4 4 4 9 10 14 7 5 3 4 4 16 18 10 9 14 18 25
3 2 2 2 1 4 4 5 5 7 4 6 6 8 6 9 6 5 4 3 4 3 4 3 2 6 5 7 6 9 15 16 7 5 6 7 8 12 19 18 19 20 20 21 24
2 4 4 5 7 14 5 3 3 5 6 11 5 12 7 4 6 12 10 7 2 4 3 6 5 3 7 10 16 18 19 15 7 16 9 10 16 19 17 20 15 15 17 26 23
2 3 2 2 1 12 11 6 12 7 9 6 12 9 12 11 9 0 4 3 6 2 5 1 4 3 12 11 18 16 17 19 11 17 16 15 18 16 18 19 7 13 17 22 20
2 2 0 3 2 4 5 7 11 6 9 14 15 11 13 19 14 15 11 4 5 6 6 6 3 1 8 7 15 12 6 9 11 12 4 5 11 18 20 21 13 17 15 17 19
Wind_Direction
304 303 302 302 300 296 293 294 297 299 304 310 315 319 320 320 315 300 273 234 255 276 269 263 261 267 286 246 242 191 230 236 227 227 238 279 288 283 254 180 237 227 152 178 152
300 301 297 294 289 289 289 287 287 288 291 298 308 316 320 324 310 289 237 224 306 294 274 272 254 260 247 243 216 212 219 236 234 234 255 256 265 286 285 242 281 29 2 143 156
293 288 285 281 281 280 278 280 279 280 284 289 300 313 322 331 309 241 148 20 332 316 275 229 238 253 241 237 221 223 233 225 249 239 263 267 273 276 281 266 210 167 144 148 163
285 281 279 279 277 273 270 270 270 272 272 278 292 309 321 331 299 215 217 332 338 319 331 171 211 243 237 241 242 251 240 234 248 267 259 252 287 275 281 253 239 159 159 160 172
289 285 281 278 277 274 266 259 260 265 267 273 288 306 339 280 248 271 296 306 303 323 17 356 264 228 243 245 254 252 243 234 239 243 254 270 258 259 268 269 273 159 163 176 179
291 289 285 283 279 275 269 259 252 252 260 269 282 300 268 268 242 266 270 328 334 350 324 330 277 302 283 252 252 285 269 252 252 257 245 243 255 239 255 257 271 250 184 184 191
293 291 288 287 286 284 285 261 253 239 243 254 274 282 247 248 304 292 296 292 288 280 270 278 274 262 331 294 284 260 271 275 244 243 250 254 258 242 245 252 264 262 197 192 194
295 295 292 289 293 290 294 297 259 229 226 231 271 281 257 266 266 275 273 262 254 266 243 249 247 259 208 273 290 264 233 243 241 239 250 253 253 245 231 234 247 252 210 188 192
303 308 299 304 298 300 309 297 261 185 193 226 262 237 265 270 226 243 231 255 263 236 238 243 223 229 195 224 269 247 253 227 249 245 239 217 256 251 222 232 244 246 230 204 194
311 320 308 305 305 306 311 87 88 88 193 237 210 207 273 254 232 160 78 316 306 313 303 252 218 188 65 224 232 235 258 262 262 223 224 243 254 247 219 220 237 245 243 206 208
318 314 314 311 308 309 115 90 56 340 205 191 183 234 309 215 344 324 320 278 257 272 249 274 225 220 221 235 257 278 284 271 266 239 237 236 245 243 236 217 221 233 236 235 200
314 313 313 313 313 282 137 182 135 337 225 235 266 233 260 297 287 286 216 190 208 231 240 279 269 258 232 238 242 247 256 265 278 264 272 272 276 261 238 233 228 225 222 228 224
313 310 312 334 105 58 93 108 100 43 353 270 226 247 244 218 236 273 203 185 214 219 224 219 243 281 250 251 242 242 241 257 265 279 279 287 282 262 266 239 236 225 227 222 221
309 307 314 122 70 117 80 131 102 351 303 316 196 262 160 224 231 223 199 234 279 238 264 236 249 256 281 280 270 271 266 265 264 265 264 205 269 256 255 261 259 231 217 221 220
308 310 312 135 127 149 137 112 84 301 294 158 111 156 169 221 313 171 173 185 221 262 352 259 321 315 304 309 305 284 309 290 282 284 272 249 261 251 215 251 245 246 234 223 219
311 79 120 80 45 110 117 128 209 85 263 146 79 313 266 245 255 270 208 206 196 233 249 259 260 270 279 287 281 289 303 296 281 256 253 248 229 259 231 238 252 242 235 226 219
330 133 72 90 123 132 124 127 28 156 240 302 340 261 268 277 273 304 343 34 255 3 315 311 240 229 261 283 285 279 309 299 296 199 241 228 222 243 245 225 237 241 234 223 220
73 73 60 96 123 128 64 46 96 140 17 37 327 275 266 273 261 7 8 352 289 243 352 70 327 42 42 340 291 289 209 221 236 208 267 219 240 256 230 239 253 258 254 232 228
86 74 62 74 114 355 33 75 205 194 136 127 294 272 265 213 148 37 262 245 263 8 165 75 267 332 312 292 296 313 271 242 255 263 282 289 267 268 241 244 232 250 256 259 229
29 45 53 121 1 311 66 242 233 119 128 146 194 289 268 351 16 64 284 288 8 100 120 167 296 268 302 318 284 227 264 264 205 240 243 235 250 253 277 226 225 230 238 242 251
63 83 146 135 314 21 168 235 179 155 150 179 218 282 286 252 180 235 235 300 152 54 95 148 151 279 303 319 332 327 307 247 219 205 224 253 246 246 252 254 259 234 240 239 234
117 52 153 124 272 225 225 222 199 186 205 238 252 265 253 286 303 227 217 201 323 61 48 202 161 268 254 298 66 330 345 319 218 245 242 240 262 154 95 22 34 344 314 260 242
87 116 135 73 236 226 272 254 206 179 196 202 214 233 213 242 247 217 249 254 231 125 210 230 273 321 337 298 302 311 311 314 322 266 227 219 289 69 335 328 318 321 313 336 258
133 175 139 211 242 284 242 227 217 213 212 191 221 257 242 250 219 246 236 303 124 133 286 77 207 185 208 240 270 291 294 301 266 269 318 270 344 332 333 319 310 306 311 327 317
176 216 173 195 220 221 216 231 195 215 211 201 226 217 195 237 229 252 256 269 266 187 135 135 212 235 251 276 286 276 279 281 229 260 257 295 311 310 325 323 308 316 335 325 306
225 213 195 262 219 199 220 209 229 225 181 212 235 212 220 234 210 119 165 187 224 140 156 233 259 268 289 288 280 299 302 294 259 263 263 268 282 353 327 335 29 9 354 343 325
115 48 46 191 199 181 199 212 222 195 221 230 217 230 233 243 231 237 249 188 195 162 179 165 173 31 286 316 321 298 281 331 333 32 318 306 349 342 341 329 26 15 334 344 337